Tracking 23732 objects as of 28-Sep-2021
HD Live streaming from Space Station
objects crossing your sky now

STARLINK-1203

Track STARLINK-1203 now!
10-day predictions
STARLINK-1203 is classified as:


NORAD ID: 45202
Int'l Code: 2020-012AA
Perigee: 547.6 km
Apogee: 550.6 km
Inclination: 53.0 °
Period: 95.5 minutes
Semi major axis: 6920 km
RCS: Unknown
Launch date: February 17, 2020
Source: United States (US)
Launch site: AIR FORCE EASTERN TEST RANGE (AFETR)
aabbcc
Your satellite tracking list
Your tracking list is empty




NASA's NSSDC Master Catalog

Two Line Element Set (TLE):
1 45202U 20012AA  21270.33549218  .00004785  00000-0  32481-3 0  9990
2 45202  52.9814 134.1559 0002149  94.2780 265.8454 15.08111529 90071
Source of the keplerian elements: AFSPC